[TLELIST] Archives

 

[TLELIST] Current TLEs

May 30th 2024 PST

HST 1 20580U 90037B 24150.90440046 .00005403 00000-0 25276-3 0 9990 2 20580 28.4679 107.6005 0002588 195.0318 165.0198 15.17506878674254 ISS (ZARYA) 1 25544U 98067A 24151.24358287 .00023833 00000-0 41437-3 0 9993 2 25544 51.6410 44.2435 0005614 252.0222 256.6947 15.50660859455763 CXO 1 25867U 99040B 24151.99324059 .00000613 00000-0 00000+0 0 9993 2 25867 40.7340 155.5526 8907069 295.1691 359.7812 0.37807376 25653 ...Continue Reading

[TLELIST] Current TLEs

May 29th 2024 PST

HST 1 20580U 90037B 24150.18096971 .00004432 00000-0 20572-3 0 9999 2 20580 28.4677 112.4457 0002626 186.6342 173.4216 15.17498680674405 ISS (ZARYA) 1 25544U 98067A 24150.21064527 .00033630 00000-0 58144-3 0 9999 2 25544 51.6406 49.3674 0005989 245.3687 253.3943 15.50625638455603 CXO 1 25867U 99040B 24149.35049423 .00000720 00000-0 00000-0 0 9999 2 25867 40.6804 155.7827 8908050 295.0223 359.9343 0.37806773 14484 ...Continue Reading

[TLELIST] Current TLEs

May 28th 2024 PST

HST 1 20580U 90037B 24148.93140153 .00004489 00000-0 20855-3 0 9997 2 20580 28.4672 120.8152 0002669 172.4313 187.6320 15.17487355673952 ISS (ZARYA) 1 25544U 98067A 24149.30135507 -.00047698 00000-0 -81638-3 0 9999 2 25544 51.6333 53.8841 0005962 243.6300 215.9869 15.50541192455469 CXO 1 25867U 99040B 24149.35049423 .00000720 00000-0 00000-0 0 9999 2 25867 40.6804 155.7827 8908050 295.0223 359.9343 0.37806773 14484 ...Continue Reading

[TLELIST] Current TLEs

May 27th 2024 PST

HST 1 20580U 90037B 24147.35298597 .00005510 00000-0 25819-3 0 9999 2 20580 28.4669 131.3868 0002699 155.3883 204.6839 15.17472986673717 ISS (ZARYA) 1 25544U 98067A 24148.21684019 .00061977 00000-0 10641-2 0 9994 2 25544 51.6387 59.2528 0005857 237.6488 284.2921 15.50547023455291 CXO 1 25867U 99040B 24149.35049423 .00000720 00000-0 00000-0 0 9999 2 25867 40.6804 155.7827 8908050 295.0223 359.9343 0.37806773 14484 ...Continue Reading

[TLELIST] Current TLEs

May 26th 2024 PST

HST 1 20580U 90037B 24146.36646801 .00006185 00000-0 29110-3 0 9991 2 20580 28.4666 137.9939 0002739 144.8429 215.2345 15.17462418673561 ISS (ZARYA) 1 25544U 98067A 24147.31178333 .00009588 00000-0 17286-3 0 9994 2 25544 51.6408 63.7429 0004739 238.7027 268.0195 15.50474033455152 CXO 1 25867U 99040B 24149.35049423 .00000720 00000-0 00000-0 0 9999 2 25867 40.6804 155.7827 8908050 295.0223 359.9343 0.37806773 14484 ...Continue Reading

[TLELIST] Current TLEs

May 25th 2024 PST

HST 1 20580U 90037B 24146.16916358 .00006345 00000-0 29886-3 0 9994 2 20580 28.4666 139.3152 0002743 143.4174 216.6606 15.17459787673796 ISS (ZARYA) 1 25544U 98067A 24146.47503061 -.00007328 00000-0 -11851-3 0 9994 2 25544 51.6399 67.8917 0005513 236.8874 276.2667 15.50443312455025 CXO 1 25867U 99040B 24146.70693382 .00000710 00000-0 00000-0 0 9993 2 25867 40.6231 156.0161 8910656 294.8672 359.9653 0.37810235 14485 ...Continue Reading

[TLELIST] Current TLEs

May 24th 2024 PST

HST 1 20580U 90037B 24144.45917662 .00006800 00000-0 32120-3 0 9994 2 20580 28.4666 150.7666 0002799 126.2798 233.8053 15.17436414673277 ISS (ZARYA) 1 25544U 98067A 24145.31322896 .00023680 00000-0 39557-3 0 9991 2 25544 51.6395 73.6504 0003274 199.0305 302.8059 15.51802432454842 CXO 1 25867U 99040B 24146.70693382 .00000710 00000-0 00000-0 0 9993 2 25867 40.6231 156.0161 8910656 294.8672 359.9653 0.37810235 14485 ...Continue Reading

[TLELIST] Current TLEs

May 23rd 2024 PST

HST 1 20580U 90037B 24143.47263329 .00007111 00000-0 33642-3 0 9995 2 20580 28.4665 157.3741 0002827 117.4044 242.6836 15.17422391673121 ISS (ZARYA) 1 25544U 98067A 24144.34779811 .00024124 00000-0 40342-3 0 9994 2 25544 51.6388 78.4485 0003310 198.3473 306.6341 15.51759236454696 CXO 1 25867U 99040B 24146.70674190 .00000710 00000-0 00000-0 0 9999 2 25867 40.6232 156.0161 8910656 294.8672 359.9391 0.37810263 14475 ...Continue Reading

[TLELIST] Current TLEs

May 22nd 2024 PST

HST 1 20580U 90037B 24143.14378366 .00007245 00000-0 34302-3 0 9999 2 20580 28.4667 159.5766 0002772 113.4123 246.6761 15.17417371673333 ISS (ZARYA) 1 25544U 98067A 24143.31696429 .00022241 00000-0 37327-3 0 9990 2 25544 51.6396 83.5695 0003239 196.4457 306.2391 15.51710854454533 CXO 1 25867U 99040B 24144.06363878 .00000674 00000-0 00000-0 0 9993 2 25867 40.5814 156.2306 8913299 294.7194 0.0380 0.37813759 14472 ...Continue Reading

[TLELIST] Current TLEs

May 21st 2024 PST

HST 1 20580U 90037B 24141.49951781 .00008641 00000-0 41117-3 0 9996 2 20580 28.4671 170.5879 0002810 98.0074 262.0837 15.17393673672829 ISS (ZARYA) 1 25544U 98067A 24142.35003124 .00025335 00000-0 42455-3 0 9992 2 25544 51.6384 88.3676 0003163 192.6310 305.1222 15.51672766454387 CXO 1 25867U 99040B 24144.06363878 .00000674 00000-0 00000-0 0 9993 2 25867 40.5814 156.2306 8913299 294.7194 0.0380 0.37813759 14472 ...Continue Reading
  • This mailing list is a public mailing list - anyone may join or leave, at any time.
  • This mailing list is announce-only.

International Space Station (ISS) / Hubble Space Telescope (HST) / Chandra X-Ray Observatory Orbital Data via EMAIL

Privacy Policy:

Private list